FIN20 KDFW-EFHK

Flight info

Callsign FIN20
Flight time 9h 4m
Altitude 37000
Route AKUNA9 MLC DCT KM36G DCT KK45I DCT KK54K DCT KG63M DCT KG72O DCT KC81Q DCT 46N080W/N0496F390 5330N07000W DCT TEALS DCT LAKES/M084F390 DCT PIDSO DCT 63N050W 6430N04000W/M085F410 6530N03000W 66N020W 66N010W 65N000E/N0499F410 DCT GIPOD DCT UXADA Y349 AMROT Y362 LAKUT
Aircraft A359/H-SDE2E3GHIJ3J4J5LM1ORWXY/LB1D1

Departure

Time 2026-05-03 22:45
Airport Dallas Fort Worth International Airport (KDFW)

Arrival

Time 2026-05-04 07:49
Airport Helsinki Vantaa Airport (EFHK)
Time Latitude Longitude Altitude Speed Heading
2026-05-03 22:01 32.90164 -97.04297 604 ft 0 kts
2026-05-03 22:20 32.90168 -97.04296 604 ft 3 kts
2026-05-03 22:21 32.90146 -97.04300 611 ft 3 kts 10°
2026-05-03 22:21 32.90124 -97.04305 619 ft 3 kts 10°
2026-05-03 22:21 32.90101 -97.04310 621 ft 3 kts
2026-05-03 22:21 32.90079 -97.04313 619 ft 3 kts
2026-05-03 22:22 32.90072 -97.04313 621 ft 5 kts 354°
2026-05-03 22:22 32.90108 -97.04318 621 ft 5 kts 354°
2026-05-03 22:22 32.90126 -97.04320 621 ft 0 kts 354°
2026-05-03 22:26 32.90128 -97.04321 604 ft 0 kts 354°
2026-05-03 22:26 32.90130 -97.04322 604 ft 1 kts 342°
2026-05-03 22:27 32.90134 -97.04332 621 ft 2 kts 297°
2026-05-03 22:27 32.90135 -97.04378 619 ft 10 kts 271°
2026-05-03 22:27 32.90135 -97.04410 616 ft 0 kts 271°
2026-05-03 22:29 32.90136 -97.04453 615 ft 10 kts 272°
2026-05-03 22:29 32.90136 -97.04528 615 ft 5 kts 269°
2026-05-03 22:29 32.90136 -97.04575 616 ft 6 kts 269°
2026-05-03 22:30 32.90135 -97.04588 616 ft 0 kts 269°
2026-05-03 22:30 32.90135 -97.04596 616 ft 5 kts 269°
2026-05-03 22:30 32.90135 -97.04670 616 ft 10 kts 270°
2026-05-03 22:30 32.90128 -97.04746 617 ft 8 kts 250°
2026-05-03 22:31 32.90118 -97.04815 618 ft 9 kts 265°
2026-05-03 22:31 32.90136 -97.04875 614 ft 7 kts 321°
2026-05-03 22:31 32.90185 -97.04886 613 ft 7 kts 359°
2026-05-03 22:31 32.90239 -97.04887 613 ft 8 kts 359°
2026-05-03 22:32 32.90297 -97.04887 612 ft 9 kts
2026-05-03 22:32 32.90362 -97.04886 612 ft 11 kts
2026-05-03 22:32 32.90450 -97.04884 614 ft 14 kts
2026-05-03 22:32 32.90557 -97.04884 612 ft 17 kts 360°
2026-05-03 22:33 32.90686 -97.04883 613 ft 20 kts
2026-05-03 22:33 32.90836 -97.04881 617 ft 22 kts
2026-05-03 22:33 32.90910 -97.04756 616 ft 20 kts 90°
2026-05-03 22:33 32.90908 -97.04583 615 ft 22 kts 90°
2026-05-03 22:34 32.90909 -97.04399 615 ft 23 kts 90°
2026-05-03 22:34 32.90906 -97.04204 604 ft 24 kts 91°
2026-05-03 22:34 32.90907 -97.04000 604 ft 25 kts 89°
2026-05-03 22:34 32.90905 -97.03790 604 ft 26 kts 90°
2026-05-03 22:35 32.90904 -97.03595 604 ft 16 kts 87°
2026-05-03 22:35 32.90905 -97.03454 604 ft 18 kts 91°
2026-05-03 22:35 32.90904 -97.03351 603 ft 11 kts 86°
2026-05-03 22:35 32.90961 -97.03309 615 ft 11 kts
2026-05-03 22:36 32.91032 -97.03285 616 ft 7 kts 18°
2026-05-03 22:36 32.91083 -97.03276 612 ft 7 kts
2026-05-03 22:36 32.91144 -97.03274 613 ft 10 kts
2026-05-03 22:36 32.91216 -97.03273 612 ft 11 kts
2026-05-03 22:37 32.91291 -97.03274 612 ft 11 kts 359°
2026-05-03 22:37 32.91360 -97.03272 613 ft 9 kts
2026-05-03 22:37 32.91425 -97.03272 612 ft 9 kts 359°
2026-05-03 22:37 32.91492 -97.03274 612 ft 10 kts 359°
2026-05-03 22:38 32.91512 -97.03274 613 ft 0 kts
2026-05-03 22:38 32.91512 -97.03273 604 ft 1 kts
2026-05-03 22:38 32.91552 -97.03250 618 ft 7 kts 47°
2026-05-03 22:39 32.91559 -97.03199 618 ft 6 kts 90°
2026-05-03 22:39 32.91559 -97.03144 616 ft 7 kts 89°
2026-05-03 22:39 32.91559 -97.03135 616 ft 0 kts 89°
2026-05-03 22:41 32.91559 -97.03132 616 ft 3 kts 90°
2026-05-03 22:41 32.91558 -97.03058 616 ft 15 kts 95°
2026-05-03 22:42 32.91493 -97.02990 613 ft 12 kts 180°
2026-05-03 22:42 32.91474 -97.02990 613 ft 0 kts 180°
2026-05-03 22:44 32.91455 -97.02990 613 ft 15 kts 181°
2026-05-03 22:44 32.91156 -97.02993 611 ft 69 kts 180°
2026-05-03 22:44 32.90508 -97.02995 613 ft 116 kts 180°
2026-05-03 22:44 32.89562 -97.03000 613 ft 155 kts 180°
2026-05-03 22:45 32.88443 -97.03016 1108 ft 149 kts 180°
2026-05-03 22:45 32.87461 -97.03038 1689 ft 145 kts 186°
2026-05-03 22:45 32.86379 -97.03017 1846 ft 161 kts 184°
2026-05-03 22:45 32.85257 -97.02907 2285 ft 165 kts 181°
2026-05-03 22:46 32.84076 -97.02573 2407 ft 184 kts 171°
2026-05-03 22:46 32.82815 -97.02033 2535 ft 202 kts 168°
2026-05-03 22:46 32.81453 -97.01402 2648 ft 222 kts 166°
2026-05-03 22:46 32.79985 -97.00698 2933 ft 233 kts 165°
2026-05-03 22:47 32.78530 -96.99709 3190 ft 250 kts 146°
2026-05-03 22:47 32.77523 -96.98008 3764 ft 255 kts 122°
2026-05-03 22:47 32.76871 -96.96061 4420 ft 253 kts 118°
2026-05-03 22:47 32.76363 -96.94024 4829 ft 264 kts 105°
2026-05-03 22:48 32.76300 -96.91786 5176 ft 277 kts 96°
2026-05-03 22:48 32.76384 -96.89518 5653 ft 280 kts 94°
2026-05-03 22:48 32.76490 -96.87213 6202 ft 282 kts 92°
2026-05-03 22:48 32.76937 -96.84902 6572 ft 295 kts 69°
2026-05-03 22:49 32.78188 -96.82976 7098 ft 297 kts 41°
2026-05-03 22:49 32.80011 -96.81874 7696 ft 296 kts 17°
2026-05-03 22:49 32.82013 -96.81389 8395 ft 292 kts 11°
2026-05-03 22:49 32.84028 -96.80971 8947 ft 296 kts 11°
2026-05-03 22:50 32.86074 -96.80648 9516 ft 297 kts
2026-05-03 22:50 32.88133 -96.80616 10128 ft 297 kts
2026-05-03 22:50 32.90179 -96.80638 10683 ft 299 kts
2026-05-03 22:50 32.92300 -96.80631 10975 ft 312 kts
2026-05-03 22:51 32.94517 -96.80614 11191 ft 326 kts
2026-05-03 22:51 32.96832 -96.80599 11401 ft 340 kts
2026-05-03 22:51 32.99243 -96.80602 11624 ft 353 kts
2026-05-03 22:51 33.01738 -96.80645 11813 ft 365 kts 360°
2026-05-03 22:52 33.04323 -96.80731 12039 ft 377 kts 358°
2026-05-03 22:52 33.06985 -96.80847 12229 ft 388 kts 359°
2026-05-03 22:52 33.09671 -96.80944 12499 ft 395 kts 358°
2026-05-03 22:52 33.12437 -96.81051 12916 ft 399 kts 358°
2026-05-03 22:53 33.15224 -96.81145 13320 ft 403 kts 359°
2026-05-03 22:53 33.18031 -96.81226 13761 ft 405 kts 359°
2026-05-03 22:53 33.20865 -96.81307 14135 ft 408 kts 358°
2026-05-03 22:53 33.23704 -96.81422 14596 ft 409 kts 358°
2026-05-03 22:54 33.26548 -96.81519 15061 ft 409 kts 359°
2026-05-03 22:54 33.29395 -96.81606 15485 ft 410 kts 357°
2026-05-03 22:54 33.32253 -96.81714 15940 ft 411 kts 358°
2026-05-03 22:54 33.35113 -96.81795 16364 ft 413 kts 358°
2026-05-03 22:55 33.37952 -96.81882 16802 ft 414 kts 358°
2026-05-03 22:55 33.40836 -96.81957 17238 ft 416 kts 359°
2026-05-03 22:55 33.43737 -96.81804 17701 ft 419 kts
2026-05-03 22:55 33.46581 -96.80955 18160 ft 425 kts 21°
2026-05-03 22:56 33.49276 -96.79422 18472 ft 431 kts 28°
2026-05-03 22:56 33.51921 -96.77695 18781 ft 435 kts 28°
2026-05-03 22:56 33.54578 -96.75965 19172 ft 436 kts 26°
2026-05-03 22:56 33.57264 -96.74257 19584 ft 437 kts 27°
2026-05-03 22:57 33.59947 -96.72537 19960 ft 438 kts 28°
2026-05-03 22:57 33.62634 -96.70782 20324 ft 441 kts 28°
2026-05-03 22:57 33.65328 -96.69021 20683 ft 442 kts 28°
2026-05-03 22:57 33.68004 -96.67280 21039 ft 444 kts 27°
2026-05-03 22:58 33.70729 -96.65515 21409 ft 446 kts 27°
2026-05-03 22:58 33.73470 -96.63750 21779 ft 447 kts 27°
2026-05-03 22:58 33.76217 -96.61989 22156 ft 449 kts 27°
2026-05-03 22:58 33.78987 -96.60211 22529 ft 451 kts 26°
2026-05-03 22:59 33.81766 -96.58429 22924 ft 453 kts 26°
2026-05-03 22:59 33.84543 -96.56627 23281 ft 455 kts 26°
2026-05-03 22:59 33.86392 -96.55432 23566 ft 456 kts 27°
2026-05-03 22:59 33.89191 -96.53600 23835 ft 459 kts 26°
2026-05-03 23:00 33.92933 -96.51191 24249 ft 462 kts 26°
2026-05-03 23:00 33.95773 -96.49364 24560 ft 464 kts 27°
2026-05-03 23:00 33.98615 -96.47501 24835 ft 466 kts 27°
2026-05-03 23:00 34.01471 -96.45620 25146 ft 468 kts 27°
2026-05-03 23:01 34.04332 -96.43744 25461 ft 469 kts 26°
2026-05-03 23:01 34.07177 -96.41786 25807 ft 473 kts 30°
2026-05-03 23:01 34.09015 -96.40363 25981 ft 476 kts 31°
2026-05-03 23:01 34.11780 -96.38139 26252 ft 479 kts 31°
2026-05-03 23:02 34.15442 -96.35138 26606 ft 482 kts 32°
2026-05-03 23:02 34.18218 -96.32857 26872 ft 484 kts 32°
2026-05-03 23:02 34.21002 -96.30554 27106 ft 486 kts 32°
2026-05-03 23:02 34.22890 -96.28997 27285 ft 487 kts 31°
2026-05-03 23:03 34.25662 -96.26733 27533 ft 489 kts 31°
2026-05-03 23:03 34.29436 -96.23636 27820 ft 492 kts 32°
2026-05-03 23:03 34.31310 -96.22091 27989 ft 493 kts 32°
2026-05-03 23:03 34.34151 -96.19764 28216 ft 494 kts 31°
2026-05-03 23:04 34.37016 -96.17446 28482 ft 496 kts 31°
2026-05-03 23:04 34.39882 -96.15106 28725 ft 498 kts 32°
2026-05-03 23:04 34.42748 -96.12730 28889 ft 500 kts 32°
2026-05-03 23:04 34.46557 -96.09570 29155 ft 502 kts 31°
2026-05-03 23:05 34.49450 -96.07187 29384 ft 503 kts 32°
2026-05-03 23:05 34.51404 -96.05571 29598 ft 502 kts 32°
2026-05-03 23:05 34.54244 -96.03219 29894 ft 501 kts 31°
2026-05-03 23:05 34.57140 -96.00852 30019 ft 502 kts 32°
2026-05-03 23:06 34.60021 -95.98460 30038 ft 501 kts 32°
2026-05-03 23:06 34.65783 -95.93668 30019 ft 503 kts 32°
2026-05-03 23:07 34.71562 -95.88879 30016 ft 503 kts 32°
2026-05-03 23:07 34.77336 -95.84086 30016 ft 503 kts 32°
2026-05-03 23:08 34.83065 -95.79304 30026 ft 504 kts 35°
2026-05-03 23:08 34.88006 -95.73175 30014 ft 513 kts 48°
2026-05-03 23:09 34.92424 -95.66266 30000 ft 519 kts 50°
2026-05-03 23:09 34.96863 -95.59332 30011 ft 518 kts 49°
2026-05-03 23:10 35.01313 -95.52503 30008 ft 518 kts 50°
2026-05-03 23:10 35.05802 -95.45626 29993 ft 518 kts 49°
2026-05-03 23:11 35.10287 -95.38743 29989 ft 518 kts 49°
2026-05-03 23:11 35.14780 -95.31866 30008 ft 518 kts 49°
2026-05-03 23:12 35.19273 -95.25002 29979 ft 517 kts 50°
2026-05-03 23:12 35.23737 -95.18187 29971 ft 516 kts 48°
2026-05-03 23:13 35.28238 -95.11336 29971 ft 516 kts 48°
2026-05-03 23:13 35.32706 -95.04449 29970 ft 517 kts 49°
2026-05-03 23:14 35.37128 -94.97575 29972 ft 517 kts 50°
2026-05-03 23:14 35.41577 -94.90650 29985 ft 516 kts 49°
2026-05-03 23:15 35.46022 -94.83747 29982 ft 516 kts 50°
2026-05-03 23:15 35.50467 -94.76834 29979 ft 516 kts 50°
2026-05-03 23:16 35.54879 -94.69968 30190 ft 516 kts 49°
2026-05-03 23:16 35.57116 -94.66535 30506 ft 514 kts 50°
2026-05-03 23:16 35.59339 -94.63101 30769 ft 513 kts 49°
2026-05-03 23:16 35.61549 -94.59656 30950 ft 514 kts 50°
2026-05-03 23:17 35.63738 -94.56183 31138 ft 514 kts 51°
2026-05-03 23:17 35.65913 -94.52701 31401 ft 512 kts 50°
2026-05-03 23:17 35.68084 -94.49247 31593 ft 511 kts 50°
2026-05-03 23:17 35.70274 -94.45800 31779 ft 511 kts 50°
2026-05-03 23:18 35.72451 -94.42350 31927 ft 511 kts 51°
2026-05-03 23:18 35.74625 -94.38889 32091 ft 511 kts 50°
2026-05-03 23:18 35.76795 -94.35426 32222 ft 510 kts 51°
2026-05-03 23:19 35.81126 -94.28588 32512 ft 509 kts 49°
2026-05-03 23:19 35.83320 -94.25165 32655 ft 509 kts 50°
2026-05-03 23:19 35.85508 -94.21725 32788 ft 509 kts 50°
2026-05-03 23:19 35.87692 -94.18300 32923 ft 509 kts 49°
2026-05-03 23:20 35.89886 -94.14879 33120 ft 507 kts 50°
2026-05-03 23:20 35.92046 -94.11440 33252 ft 507 kts 50°
2026-05-03 23:20 35.94205 -94.07992 33328 ft 508 kts 50°
2026-05-03 23:20 35.96368 -94.04543 33464 ft 508 kts 50°
2026-05-03 23:21 35.98531 -94.01101 33586 ft 507 kts 49°
2026-05-03 23:21 36.03243 -93.94805 33899 ft 500 kts 44°
2026-05-03 23:21 36.05639 -93.91691 34007 ft 500 kts 45°
2026-05-03 23:22 36.10435 -93.85440 34153 ft 500 kts 43°
2026-05-03 23:22 36.12850 -93.82348 34287 ft 500 kts 43°
2026-05-03 23:22 36.15254 -93.79247 34401 ft 499 kts 44°
2026-05-03 23:23 36.19997 -93.73048 34588 ft 499 kts 43°
2026-05-03 23:23 36.24789 -93.66808 34711 ft 500 kts 44°
2026-05-03 23:24 36.29562 -93.60557 34861 ft 500 kts 44°
2026-05-03 23:24 36.34309 -93.54230 34858 ft 502 kts 45°
2026-05-03 23:25 36.39092 -93.47952 35066 ft 498 kts 41°
2026-05-03 23:25 36.41529 -93.44891 35211 ft 497 kts 41°
2026-05-03 23:25 36.43927 -93.41881 35304 ft 497 kts 43°
2026-05-03 23:26 36.48706 -93.35613 35376 ft 500 kts 42°
2026-05-03 23:26 36.51102 -93.32484 35507 ft 499 kts 44°
2026-05-03 23:26 36.53474 -93.29339 35572 ft 500 kts 43°
2026-05-03 23:27 36.58221 -93.23017 35670 ft 500 kts 44°
2026-05-03 23:27 36.62935 -93.16731 35810 ft 499 kts 44°
2026-05-03 23:28 36.67670 -93.10399 35889 ft 500 kts 44°
2026-05-03 23:28 36.72410 -93.04063 36024 ft 499 kts 43°
2026-05-03 23:29 36.74784 -93.00910 36132 ft 498 kts 43°
2026-05-03 23:29 36.77153 -92.97762 36189 ft 498 kts 43°
2026-05-03 23:29 36.81890 -92.91465 36239 ft 498 kts 44°
2026-05-03 23:30 36.86592 -92.85205 36354 ft 497 kts 43°
2026-05-03 23:30 36.91333 -92.78901 36466 ft 497 kts 44°
2026-05-03 23:31 36.96033 -92.72564 36509 ft 498 kts 42°
2026-05-03 23:31 37.00748 -92.66225 36647 ft 497 kts 43°
2026-05-03 23:32 37.05389 -92.59886 36713 ft 497 kts 43°
2026-05-03 23:32 37.10062 -92.53532 36763 ft 496 kts 43°
2026-05-03 23:33 37.14748 -92.47176 36762 ft 497 kts 42°
2026-05-03 23:33 37.19458 -92.40846 36846 ft 496 kts 43°
2026-05-03 23:34 37.24122 -92.34516 36704 ft 501 kts 44°
2026-05-03 23:34 37.28845 -92.28035 36640 ft 503 kts 43°
2026-05-03 23:35 37.33579 -92.21581 36714 ft 502 kts 43°
2026-05-03 23:35 37.38323 -92.15148 36764 ft 501 kts 44°
2026-05-03 23:36 37.42990 -92.08676 36685 ft 504 kts 45°
2026-05-03 23:36 37.47688 -92.02136 36710 ft 503 kts 44°
2026-05-03 23:37 37.52448 -91.95706 36744 ft 500 kts 40°
2026-05-03 23:37 37.57337 -91.89494 36781 ft 499 kts 41°
2026-05-03 23:38 37.62163 -91.83276 36838 ft 499 kts 41°
2026-05-03 23:38 37.66995 -91.76975 36806 ft 500 kts 42°
2026-05-03 23:39 37.71851 -91.70704 36918 ft 498 kts 41°
2026-05-03 23:39 37.76694 -91.64429 36940 ft 499 kts 40°
2026-05-03 23:40 37.81497 -91.58091 36930 ft 499 kts 43°
2026-05-03 23:40 37.86242 -91.51771 36938 ft 498 kts 41°
2026-05-03 23:41 37.91084 -91.45497 36925 ft 498 kts 43°
2026-05-03 23:41 37.95852 -91.39129 36942 ft 499 kts 43°
2026-05-03 23:42 38.00653 -91.32784 36919 ft 498 kts 41°
2026-05-03 23:42 38.05475 -91.26472 36921 ft 498 kts 41°
2026-05-03 23:43 38.10234 -91.20155 36922 ft 498 kts 42°
2026-05-03 23:43 38.15024 -91.13812 36940 ft 497 kts 42°
2026-05-03 23:44 38.19831 -91.07475 36941 ft 499 kts 43°
2026-05-03 23:44 38.24565 -91.01108 36926 ft 498 kts 41°
2026-05-03 23:45 38.29387 -90.94778 36899 ft 499 kts 43°
2026-05-03 23:45 38.34179 -90.88391 36896 ft 499 kts 43°
2026-05-03 23:46 38.38929 -90.81926 36881 ft 499 kts 43°
2026-05-03 23:46 38.43696 -90.75510 36889 ft 498 kts 41°
2026-05-03 23:47 38.48482 -90.69181 36877 ft 499 kts 43°
2026-05-03 23:47 38.53234 -90.62695 36871 ft 500 kts 43°
2026-05-03 23:48 38.57957 -90.56192 36868 ft 498 kts 43°
2026-05-03 23:48 38.62700 -90.49748 36870 ft 497 kts 42°
2026-05-03 23:49 38.67449 -90.43413 36899 ft 497 kts 40°
2026-05-03 23:49 38.72224 -90.36988 36905 ft 499 kts 42°
2026-05-03 23:50 38.77010 -90.30539 36886 ft 500 kts 44°
2026-05-03 23:50 38.81730 -90.23997 36885 ft 499 kts 44°
2026-05-03 23:51 38.86487 -90.17507 36896 ft 499 kts 42°
2026-05-03 23:51 38.91218 -90.11057 36901 ft 500 kts 42°
2026-05-03 23:52 38.95978 -90.04537 36897 ft 501 kts 42°
2026-05-03 23:52 39.00701 -89.97957 36867 ft 500 kts 43°
2026-05-03 23:53 39.05578 -89.91630 36867 ft 497 kts 39°
2026-05-03 23:53 39.10508 -89.85458 36866 ft 498 kts 40°
2026-05-03 23:54 39.15431 -89.79140 36862 ft 501 kts 43°
2026-05-03 23:54 39.20315 -89.72730 36860 ft 501 kts 43°
2026-05-03 23:55 39.25208 -89.66325 36865 ft 501 kts 41°
2026-05-03 23:55 39.30094 -89.59991 36864 ft 501 kts 41°
2026-05-03 23:56 39.35006 -89.53588 36868 ft 503 kts 42°
2026-05-03 23:56 39.39873 -89.47069 36881 ft 503 kts 42°
2026-05-03 23:57 39.44748 -89.40587 36887 ft 503 kts 43°
2026-05-03 23:57 39.49631 -89.34124 36887 ft 501 kts 41°
2026-05-03 23:58 39.54507 -89.27748 36887 ft 502 kts 42°
2026-05-03 23:58 39.59427 -89.21338 36908 ft 503 kts 40°
2026-05-03 23:59 39.64381 -89.14907 36887 ft 505 kts 43°
2026-05-03 23:59 39.69241 -89.08325 36883 ft 505 kts 44°
2026-05-04 00:00 39.74056 -89.01791 36899 ft 503 kts 41°
2026-05-04 00:00 39.78997 -88.95342 36894 ft 504 kts 40°
2026-05-04 00:01 39.83955 -88.88868 36896 ft 505 kts 41°
2026-05-04 00:01 39.88861 -88.82315 36897 ft 505 kts 44°
2026-05-04 00:02 39.93665 -88.75707 36893 ft 505 kts 44°
2026-05-04 00:02 39.98515 -88.69076 36870 ft 505 kts 43°
2026-05-04 00:03 40.03402 -88.62503 36895 ft 505 kts 41°
2026-05-04 00:03 40.08317 -88.55952 36866 ft 505 kts 44°
2026-05-04 00:04 40.13132 -88.49350 36864 ft 505 kts 42°
2026-05-04 00:04 40.18021 -88.42761 36865 ft 505 kts 44°
2026-05-04 00:05 40.22883 -88.36116 36865 ft 505 kts 44°
2026-05-04 00:05 40.27756 -88.29482 36866 ft 506 kts 43°
2026-05-04 00:06 40.32620 -88.22911 36869 ft 505 kts 44°
2026-05-04 00:06 40.37443 -88.16204 36870 ft 505 kts 45°
2026-05-04 00:07 40.42297 -88.09548 36856 ft 505 kts 43°
2026-05-04 00:07 40.47210 -88.02947 36863 ft 506 kts 44°
2026-05-04 00:08 40.52053 -87.96331 36866 ft 504 kts 43°
2026-05-04 00:08 40.57035 -87.89846 36840 ft 504 kts 41°
2026-05-04 00:09 40.62059 -87.83429 36863 ft 504 kts 43°
2026-05-04 00:09 40.67056 -87.76957 36861 ft 504 kts 41°
2026-05-04 00:10 40.72036 -87.70547 36857 ft 504 kts 42°
2026-05-04 00:10 40.77036 -87.64068 36854 ft 505 kts 43°
2026-05-04 00:11 40.82036 -87.57556 36853 ft 506 kts 42°
2026-05-04 00:11 40.87019 -87.50991 36861 ft 506 kts 42°
2026-05-04 00:12 40.91975 -87.44482 36858 ft 505 kts 43°
2026-05-04 00:12 40.96943 -87.37917 36865 ft 505 kts 42°
2026-05-04 00:13 41.01912 -87.31342 36865 ft 505 kts 45°
2026-05-04 00:13 41.06880 -87.24780 36869 ft 505 kts 43°
2026-05-04 00:14 41.11840 -87.18255 36890 ft 506 kts 43°
2026-05-04 00:14 41.16828 -87.11686 36879 ft 505 kts 43°
2026-05-04 00:15 41.21773 -87.05062 36866 ft 505 kts 45°
2026-05-04 00:15 41.26678 -86.98392 36855 ft 504 kts 43°
2026-05-04 00:16 41.31637 -86.91805 36885 ft 505 kts 43°
2026-05-04 00:16 41.36590 -86.85270 36856 ft 504 kts 43°
2026-05-04 00:17 41.41545 -86.78663 36862 ft 504 kts 45°
2026-05-04 00:17 41.46433 -86.71964 36863 ft 504 kts 45°
2026-05-04 00:18 41.51327 -86.65292 36851 ft 503 kts 45°
2026-05-04 00:18 41.56191 -86.58660 36853 ft 503 kts 44°
2026-05-04 00:19 41.61131 -86.52046 36860 ft 503 kts 43°
2026-05-04 00:19 41.66067 -86.45408 36868 ft 503 kts 45°
2026-05-04 00:20 41.70961 -86.38711 36868 ft 503 kts 43°
2026-05-04 00:20 41.75864 -86.32023 36868 ft 503 kts 44°
2026-05-04 00:21 41.80715 -86.25354 36870 ft 503 kts 44°
2026-05-04 00:21 41.85627 -86.18684 36871 ft 503 kts 43°
2026-05-04 00:22 41.90541 -86.12001 36874 ft 504 kts 44°
2026-05-04 00:22 41.95438 -86.05261 36876 ft 504 kts 44°
2026-05-04 00:23 42.00308 -85.98472 36872 ft 504 kts 45°
2026-05-04 00:23 42.05248 -85.91924 36874 ft 501 kts 41°
2026-05-04 00:24 42.10377 -85.85550 36879 ft 502 kts 40°
2026-05-04 00:24 42.15452 -85.79093 36870 ft 502 kts 43°
2026-05-04 00:25 42.20447 -85.72513 36870 ft 501 kts 42°
2026-05-04 00:25 42.25430 -85.66024 36867 ft 502 kts 44°
2026-05-04 00:26 42.30427 -85.59461 36870 ft 501 kts 41°
2026-05-04 00:26 42.35454 -85.52927 36870 ft 502 kts 44°
2026-05-04 00:27 42.40455 -85.46347 36871 ft 502 kts 41°
2026-05-04 00:27 42.45449 -85.39831 36876 ft 502 kts 44°
2026-05-04 00:28 42.50454 -85.33221 36877 ft 502 kts 43°
2026-05-04 00:28 42.55468 -85.26624 36878 ft 503 kts 42°
2026-05-04 00:29 42.60511 -85.20042 36865 ft 503 kts 42°
2026-05-04 00:29 42.65534 -85.13422 36865 ft 503 kts 44°
2026-05-04 00:30 42.70467 -85.06777 36860 ft 503 kts 44°
2026-05-04 00:30 42.75427 -85.00073 36862 ft 503 kts 44°
2026-05-04 00:31 42.80416 -84.93407 36863 ft 503 kts 44°
2026-05-04 00:31 42.85396 -84.86715 36862 ft 503 kts 43°
2026-05-04 00:32 42.90350 -84.80091 36897 ft 502 kts 43°
2026-05-04 00:32 42.95376 -84.73447 36863 ft 504 kts 43°
2026-05-04 00:33 43.02799 -84.63296 36853 ft 503 kts 44°
2026-05-04 00:34 43.07782 -84.56578 36842 ft 503 kts 43°
2026-05-04 00:34 43.12748 -84.49915 36837 ft 504 kts 45°
2026-05-04 00:35 43.17699 -84.43122 36839 ft 503 kts 45°
2026-05-04 00:35 43.22648 -84.36346 36848 ft 503 kts 45°
2026-05-04 00:36 43.27575 -84.29557 36843 ft 502 kts 44°
2026-05-04 00:36 43.32512 -84.22782 36835 ft 502 kts 45°
2026-05-04 00:37 43.37403 -84.16039 36813 ft 501 kts 44°
2026-05-04 00:37 43.42385 -84.09346 36809 ft 501 kts 44°
2026-05-04 00:38 43.47307 -84.02550 36821 ft 501 kts 45°
2026-05-04 00:38 43.52163 -83.95657 36815 ft 502 kts 46°
2026-05-04 00:39 43.56890 -83.88632 36817 ft 503 kts 47°
2026-05-04 00:39 43.61596 -83.81486 36813 ft 503 kts 49°
2026-05-04 00:40 43.66251 -83.74282 36825 ft 502 kts 48°
2026-05-04 00:40 43.70959 -83.67171 36808 ft 501 kts 48°
2026-05-04 00:41 43.75652 -83.60136 36799 ft 501 kts 48°
2026-05-04 00:41 43.80359 -83.53031 36817 ft 501 kts 49°
2026-05-04 00:42 43.85025 -83.45855 36809 ft 500 kts 47°
2026-05-04 00:42 43.89738 -83.38764 36796 ft 500 kts 46°
2026-05-04 00:43 43.94398 -83.31687 36794 ft 500 kts 49°
2026-05-04 00:43 43.99079 -83.24540 36793 ft 500 kts 47°
2026-05-04 00:44 44.03779 -83.17422 36794 ft 501 kts 47°
2026-05-04 00:44 44.08436 -83.10198 36784 ft 501 kts 47°
2026-05-04 00:45 44.13068 -83.02961 36774 ft 500 kts 48°
2026-05-04 00:45 44.17715 -82.95839 36772 ft 500 kts 47°
2026-05-04 00:46 44.22370 -82.88626 36773 ft 501 kts 48°
2026-05-04 00:46 44.27061 -82.81424 36768 ft 502 kts 47°
2026-05-04 00:47 44.31739 -82.74194 36765 ft 503 kts 49°
2026-05-04 00:47 44.36373 -82.66869 36757 ft 503 kts 49°
2026-05-04 00:48 44.41006 -82.59634 36761 ft 503 kts 48°
2026-05-04 00:48 44.45681 -82.52333 36750 ft 504 kts 50°
2026-05-04 00:49 44.50309 -82.44981 36755 ft 503 kts 49°
2026-05-04 00:49 44.54971 -82.37658 36756 ft 504 kts 49°
2026-05-04 00:50 44.59632 -82.30308 36752 ft 504 kts 50°
2026-05-04 00:50 44.64245 -82.22975 36747 ft 504 kts 49°
2026-05-04 00:51 44.68878 -82.15577 36748 ft 504 kts 50°
2026-05-04 00:51 44.73505 -82.08152 36738 ft 504 kts 50°
2026-05-04 00:52 44.78173 -82.00785 36742 ft 505 kts 50°
2026-05-04 00:52 44.82828 -81.93446 36740 ft 506 kts 50°
2026-05-04 00:53 44.87465 -81.85981 36746 ft 507 kts 50°
2026-05-04 00:53 44.92058 -81.78435 36750 ft 507 kts 48°
2026-05-04 00:54 44.96762 -81.71024 36748 ft 508 kts 47°
2026-05-04 00:54 45.01404 -81.63589 36737 ft 508 kts 49°
2026-05-04 00:55 45.06015 -81.56032 36738 ft 508 kts 49°
2026-05-04 00:55 45.10663 -81.48477 36742 ft 509 kts 49°
2026-05-04 00:56 45.15308 -81.40901 36744 ft 510 kts 49°
2026-05-04 00:56 45.19952 -81.33297 36746 ft 510 kts 49°
2026-05-04 00:57 45.24517 -81.25692 36758 ft 510 kts 51°
2026-05-04 00:57 45.29128 -81.18050 36741 ft 510 kts 50°
2026-05-04 00:58 45.33777 -81.10417 36750 ft 511 kts 50°
2026-05-04 00:58 45.38428 -81.02771 36750 ft 511 kts 49°
2026-05-04 00:59 45.43087 -80.95136 36763 ft 511 kts 49°
2026-05-04 00:59 45.47699 -80.87500 36757 ft 511 kts 49°
2026-05-04 01:00 45.52323 -80.79803 36761 ft 511 kts 50°
2026-05-04 01:00 45.56864 -80.71991 36770 ft 511 kts 52°
2026-05-04 01:01 45.61370 -80.64246 36775 ft 511 kts 51°
2026-05-04 01:01 45.65995 -80.56527 36781 ft 511 kts 50°
2026-05-04 01:02 45.70633 -80.48805 36781 ft 512 kts 51°
2026-05-04 01:02 45.75257 -80.41031 36782 ft 513 kts 50°
2026-05-04 01:03 45.79867 -80.33227 36790 ft 514 kts 51°
2026-05-04 01:03 45.84417 -80.25415 36785 ft 513 kts 51°
2026-05-04 01:04 45.89002 -80.17562 36808 ft 514 kts 52°
2026-05-04 01:04 45.93575 -80.09677 36787 ft 514 kts 51°
2026-05-04 01:05 45.98221 -80.01862 36768 ft 513 kts 49°
2026-05-04 01:05 46.03499 -79.95192 36794 ft 508 kts 38°
2026-05-04 01:06 46.09126 -79.89014 36801 ft 509 kts 38°
2026-05-04 01:06 46.14804 -79.82914 36799 ft 509 kts 38°
2026-05-04 01:07 46.20433 -79.76722 36789 ft 509 kts 38°
2026-05-04 01:07 46.26037 -79.70562 36794 ft 510 kts 38°
2026-05-04 01:08 46.31710 -79.64415 36760 ft 510 kts 38°
2026-05-04 01:08 46.37339 -79.58182 36749 ft 509 kts 39°
2026-05-04 01:09 46.42939 -79.51906 36790 ft 509 kts 37°
2026-05-04 01:09 46.48572 -79.45757 36810 ft 510 kts 38°
2026-05-04 01:10 46.54195 -79.39482 36790 ft 510 kts 37°
2026-05-04 01:10 46.59849 -79.33221 36787 ft 511 kts 39°
2026-05-04 01:11 46.65479 -79.26899 36786 ft 511 kts 37°
2026-05-04 01:11 46.71092 -79.20664 36782 ft 511 kts 39°
2026-05-04 01:12 46.76702 -79.14302 36781 ft 512 kts 39°
2026-05-04 01:12 46.82323 -79.07907 36779 ft 512 kts 38°
2026-05-04 01:13 46.87997 -79.01596 36779 ft 512 kts 39°
2026-05-04 01:13 46.93646 -78.95241 36776 ft 512 kts 39°
2026-05-04 01:14 46.99196 -78.88820 36773 ft 512 kts 40°
2026-05-04 01:14 47.04823 -78.82408 36777 ft 513 kts 38°
2026-05-04 01:15 47.10485 -78.76039 36772 ft 512 kts 38°
2026-05-04 01:15 47.16144 -78.69668 36764 ft 512 kts 38°
2026-05-04 01:16 47.21767 -78.63248 36767 ft 512 kts 39°
2026-05-04 01:16 47.27327 -78.56792 36763 ft 512 kts 40°
2026-05-04 01:17 47.32909 -78.50249 36760 ft 513 kts 39°
2026-05-04 01:17 47.38507 -78.43733 36761 ft 513 kts 40°
2026-05-04 01:18 47.44127 -78.37218 36761 ft 514 kts 39°
2026-05-04 01:18 47.49735 -78.30793 36752 ft 513 kts 39°
2026-05-04 01:19 47.55348 -78.24292 36749 ft 513 kts 40°
2026-05-04 01:19 47.60917 -78.17692 36750 ft 512 kts 42°
2026-05-04 01:20 47.66446 -78.11010 36754 ft 513 kts 41°
2026-05-04 01:20 47.72005 -78.04448 36750 ft 514 kts 42°
2026-05-04 01:21 47.77604 -77.97847 36748 ft 514 kts 41°
2026-05-04 01:21 47.83205 -77.91266 36756 ft 513 kts 42°
2026-05-04 01:22 47.88769 -77.84594 36746 ft 514 kts 42°
2026-05-04 01:22 47.94305 -77.77963 36695 ft 514 kts 40°
2026-05-04 01:23 47.99909 -77.71345 36704 ft 514 kts 42°
2026-05-04 01:23 48.05479 -77.64652 36687 ft 514 kts 42°
2026-05-04 01:24 48.11050 -77.57942 36711 ft 514 kts 41°
2026-05-04 01:24 48.16606 -77.51210 36718 ft 514 kts 43°
2026-05-04 01:25 48.22159 -77.44549 36736 ft 515 kts 41°
2026-05-04 01:25 48.27753 -77.37864 36748 ft 514 kts 40°
2026-05-04 01:26 48.33345 -77.31160 36756 ft 514 kts 41°
2026-05-04 01:26 48.38869 -77.24349 36744 ft 514 kts 43°
2026-05-04 01:27 48.44352 -77.17546 36756 ft 515 kts 40°
2026-05-04 01:27 48.49948 -77.10818 36759 ft 515 kts 40°
2026-05-04 01:28 48.55515 -77.04038 36743 ft 514 kts 41°
2026-05-04 01:28 48.61073 -76.97229 36749 ft 514 kts 41°
2026-05-04 01:29 48.66589 -76.90344 36752 ft 514 kts 44°
2026-05-04 01:29 48.72070 -76.83496 36742 ft 515 kts 41°
2026-05-04 01:30 48.77607 -76.76608 36753 ft 515 kts 42°
2026-05-04 01:30 48.83129 -76.69709 36748 ft 515 kts 42°
2026-05-04 01:31 48.88672 -76.62816 36754 ft 515 kts 42°
2026-05-04 01:31 48.94150 -76.55915 36746 ft 514 kts 43°
2026-05-04 01:32 48.99629 -76.48903 36748 ft 515 kts 43°
2026-05-04 01:32 49.05136 -76.41907 36751 ft 515 kts 42°
2026-05-04 01:33 49.10657 -76.34941 36744 ft 516 kts 42°
2026-05-04 01:33 49.16153 -76.28023 36755 ft 515 kts 42°
2026-05-04 01:34 49.21658 -76.21005 36748 ft 515 kts 43°
2026-05-04 01:34 49.27195 -76.14026 36751 ft 515 kts 43°
2026-05-04 01:35 49.32646 -76.06925 36752 ft 515 kts 45°
2026-05-04 01:35 49.38082 -75.99863 36751 ft 516 kts 42°
2026-05-04 01:36 49.43579 -75.92777 36756 ft 516 kts 43°
2026-05-04 01:36 49.49061 -75.85670 36759 ft 516 kts 44°
2026-05-04 01:37 49.54557 -75.78559 36764 ft 516 kts 43°
2026-05-04 01:37 49.60047 -75.71536 36756 ft 516 kts 42°
2026-05-04 01:38 49.65551 -75.64455 36758 ft 515 kts 44°
2026-05-04 01:38 49.71008 -75.57279 36758 ft 516 kts 43°
2026-05-04 01:39 49.76469 -75.50089 36760 ft 515 kts 45°
2026-05-04 01:39 49.81860 -75.42790 36760 ft 516 kts 46°
2026-05-04 01:40 49.87241 -75.35547 36761 ft 516 kts 45°
2026-05-04 01:40 49.92685 -75.28292 36763 ft 516 kts 45°
2026-05-04 01:41 49.98138 -75.21062 36770 ft 516 kts 44°
2026-05-04 01:41 50.03626 -75.13842 36768 ft 517 kts 44°
2026-05-04 01:42 50.09076 -75.06645 36770 ft 517 kts 44°
2026-05-04 01:42 50.14539 -74.99383 36777 ft 516 kts 44°
2026-05-04 01:43 50.19978 -74.92054 36776 ft 516 kts 45°
2026-05-04 01:43 50.25401 -74.84677 36775 ft 517 kts 45°
2026-05-04 01:44 50.30753 -74.77314 36774 ft 517 kts 45°
2026-05-04 01:44 50.36175 -74.69916 36779 ft 518 kts 43°
2026-05-04 01:45 50.41672 -74.62636 36782 ft 517 kts 43°
2026-05-04 01:45 50.48908 -74.52831 36781 ft 516 kts 44°
2026-05-04 01:46 50.55148 -74.44126 36782 ft 517 kts 44°
2026-05-04 01:46 50.60550 -74.36651 36785 ft 517 kts 45°
2026-05-04 01:47 50.65058 -74.30447 36789 ft 518 kts 44°
2026-05-04 01:47 50.71314 -74.21611 36789 ft 516 kts 47°
2026-05-04 01:48 50.76624 -74.14080 36788 ft 516 kts 46°
2026-05-04 01:48 50.81152 -74.07804 36788 ft 517 kts 44°
2026-05-04 01:49 50.87514 -73.99209 36795 ft 517 kts 44°
2026-05-04 01:49 50.92035 -73.92991 36796 ft 517 kts 46°
2026-05-04 01:50 50.98242 -73.84137 36796 ft 517 kts 46°
2026-05-04 01:50 51.02743 -73.77756 36796 ft 518 kts 46°
2026-05-04 01:51 51.08062 -73.70147 36799 ft 518 kts 46°
2026-05-04 01:51 51.13416 -73.62491 36799 ft 519 kts 46°
2026-05-04 01:52 51.18808 -73.54835 36803 ft 519 kts 45°
2026-05-04 01:52 51.24200 -73.47166 36804 ft 519 kts 47°
2026-05-04 01:53 51.29499 -73.39447 36806 ft 519 kts 45°
2026-05-04 01:53 51.34880 -73.31757 36808 ft 519 kts 45°
2026-05-04 01:54 51.40267 -73.24054 36810 ft 519 kts 46°
2026-05-04 01:54 51.45638 -73.16323 36806 ft 519 kts 47°
2026-05-04 01:55 51.50884 -73.08499 36805 ft 518 kts 49°
2026-05-04 01:55 51.56157 -73.00599 36809 ft 518 kts 48°
2026-05-04 01:56 51.61497 -72.92792 36813 ft 519 kts 46°
2026-05-04 01:56 51.66871 -72.85031 36809 ft 519 kts 46°
2026-05-04 01:57 51.72174 -72.77239 36806 ft 519 kts 47°
2026-05-04 01:57 51.77523 -72.69373 36810 ft 521 kts 46°
2026-05-04 01:58 51.82851 -72.61441 36810 ft 521 kts 47°
2026-05-04 01:58 51.88168 -72.53493 36812 ft 521 kts 46°
2026-05-04 01:59 51.93444 -72.45564 36811 ft 521 kts 48°
2026-05-04 01:59 51.98805 -72.37639 36809 ft 522 kts 46°
2026-05-04 02:00 52.04148 -72.29703 36812 ft 520 kts 49°
2026-05-04 02:00 52.09427 -72.21648 36809 ft 521 kts 47°
2026-05-04 02:01 52.14689 -72.13645 36805 ft 521 kts 49°
2026-05-04 02:01 52.19938 -72.05526 36803 ft 521 kts 49°
2026-05-04 02:02 52.25259 -71.97480 36804 ft 521 kts 47°
2026-05-04 02:02 52.30591 -71.89455 36791 ft 521 kts 46°
2026-05-04 02:03 52.35911 -71.81406 36808 ft 521 kts 47°
2026-05-04 02:03 52.41174 -71.73337 36806 ft 522 kts 47°
2026-05-04 02:04 52.46441 -71.65146 36793 ft 521 kts 50°
2026-05-04 02:04 52.51652 -71.56869 36807 ft 522 kts 49°
2026-05-04 02:05 52.56914 -71.48625 36810 ft 523 kts 49°
2026-05-04 02:05 52.62187 -71.40377 36788 ft 523 kts 49°
2026-05-04 02:06 52.67420 -71.32164 36788 ft 523 kts 50°
2026-05-04 02:06 52.72639 -71.23833 36807 ft 523 kts 50°
2026-05-04 02:07 52.77886 -71.15508 36786 ft 523 kts 49°
2026-05-04 02:07 52.83165 -71.07211 36799 ft 524 kts 49°
2026-05-04 02:08 52.88382 -70.98927 36795 ft 523 kts 50°
2026-05-04 02:08 52.93595 -70.90525 36793 ft 522 kts 50°
2026-05-04 02:09 52.98840 -70.82176 36799 ft 524 kts 48°
2026-05-04 02:09 53.04140 -70.73838 36799 ft 525 kts 50°
2026-05-04 02:10 53.09341 -70.65444 36803 ft 524 kts 51°
2026-05-04 02:10 53.14540 -70.56923 36805 ft 525 kts 50°
2026-05-04 02:11 53.19743 -70.48409 36807 ft 525 kts 50°
2026-05-04 02:11 53.24990 -70.39915 36807 ft 525 kts 50°
2026-05-04 02:12 53.30217 -70.31387 36809 ft 524 kts 51°
2026-05-04 02:12 53.35352 -70.22829 36810 ft 524 kts 51°
2026-05-04 02:13 53.40528 -70.14213 36808 ft 525 kts 51°
2026-05-04 02:13 53.45717 -70.05594 36807 ft 525 kts 52°
2026-05-04 02:14 53.51099 -69.97320 36824 ft 527 kts 43°
2026-05-04 02:14 53.56922 -69.89778 36801 ft 529 kts 43°
2026-05-04 02:15 53.62705 -69.82246 36809 ft 530 kts 45°
2026-05-04 02:15 53.68491 -69.74540 36804 ft 530 kts 44°
2026-05-04 02:16 53.74291 -69.66858 36804 ft 530 kts 44°
2026-05-04 02:16 53.80105 -69.59179 36803 ft 530 kts 44°
2026-05-04 02:17 53.85868 -69.51511 36808 ft 531 kts 44°
2026-05-04 02:17 53.91696 -69.43808 36806 ft 530 kts 45°
2026-05-04 02:18 53.97457 -69.36009 36811 ft 531 kts 43°
2026-05-04 02:18 54.03304 -69.28323 36810 ft 531 kts 45°
2026-05-04 02:19 54.09017 -69.20512 36809 ft 530 kts 46°
2026-05-04 02:19 54.14778 -69.12639 36811 ft 532 kts 43°
2026-05-04 02:20 54.20557 -69.04777 36815 ft 531 kts 45°
2026-05-04 02:20 54.26316 -68.96868 36815 ft 531 kts 45°
2026-05-04 02:21 54.32070 -68.89067 36815 ft 532 kts 44°
2026-05-04 02:21 54.37851 -68.81176 36821 ft 531 kts 44°
2026-05-04 02:22 54.43646 -68.73311 36818 ft 530 kts 45°
2026-05-04 02:22 54.49355 -68.65285 36823 ft 530 kts 46°
2026-05-04 02:23 54.55048 -68.57306 36813 ft 532 kts 45°
2026-05-04 02:23 54.60793 -68.49268 36827 ft 532 kts 45°
2026-05-04 02:24 54.66574 -68.41262 36830 ft 534 kts 44°
2026-05-04 02:24 54.72372 -68.33248 36834 ft 533 kts 45°
2026-05-04 02:25 54.78117 -68.25128 36843 ft 533 kts 45°
2026-05-04 02:25 54.83823 -68.17039 36841 ft 533 kts 45°
2026-05-04 02:26 54.89531 -68.08821 36837 ft 533 kts 47°
2026-05-04 02:26 54.95199 -68.00529 36844 ft 533 kts 47°
2026-05-04 02:27 55.00912 -67.92270 36847 ft 534 kts 45°
2026-05-04 02:27 55.06631 -67.84120 36844 ft 535 kts 44°
2026-05-04 02:28 55.12425 -67.75973 36847 ft 534 kts 46°
2026-05-04 02:28 55.18154 -67.67716 36856 ft 534 kts 45°
2026-05-04 02:29 55.23865 -67.59414 36859 ft 533 kts 46°
2026-05-04 02:29 55.29519 -67.51130 36856 ft 534 kts 45°
2026-05-04 02:30 55.35241 -67.42802 36856 ft 534 kts 47°
2026-05-04 02:30 55.40897 -67.34357 36863 ft 533 kts 47°
2026-05-04 02:31 55.46558 -67.25879 36864 ft 534 kts 47°
2026-05-04 02:31 55.52275 -67.17472 36872 ft 535 kts 46°
2026-05-04 02:32 55.57969 -67.09170 36847 ft 535 kts 45°
2026-05-04 02:32 55.63604 -67.00622 36862 ft 533 kts 48°
2026-05-04 02:33 55.69293 -66.92128 36864 ft 536 kts 47°
2026-05-04 02:33 55.75062 -66.83707 36859 ft 538 kts 45°
2026-05-04 02:34 55.80787 -66.75316 36860 ft 537 kts 47°
2026-05-04 02:34 55.86528 -66.66791 36861 ft 538 kts 47°
2026-05-04 02:35 55.92311 -66.58320 36867 ft 538 kts 45°
2026-05-04 02:35 55.98074 -66.49817 36861 ft 537 kts 46°
2026-05-04 02:36 56.03762 -66.41276 36858 ft 537 kts 48°
2026-05-04 02:36 56.09453 -66.32582 36862 ft 539 kts 45°
2026-05-04 02:37 56.15237 -66.24022 36861 ft 538 kts 47°
2026-05-04 02:37 56.20940 -66.15333 36855 ft 537 kts 47°
2026-05-04 02:38 56.26660 -66.06648 36865 ft 538 kts 46°
2026-05-04 02:38 56.32397 -65.97980 36864 ft 538 kts 46°
2026-05-04 02:39 56.38048 -65.89303 36864 ft 537 kts 46°
2026-05-04 02:39 56.43717 -65.80494 36867 ft 538 kts 46°
2026-05-04 02:40 56.49440 -65.71754 36870 ft 538 kts 47°
2026-05-04 02:40 56.55110 -65.62908 36869 ft 537 kts 47°
2026-05-04 02:41 56.60749 -65.54136 36868 ft 538 kts 46°
2026-05-04 02:41 56.66409 -65.45267 36875 ft 537 kts 47°
2026-05-04 02:42 56.72062 -65.36404 36874 ft 536 kts 47°
2026-05-04 02:42 56.77667 -65.27472 36872 ft 536 kts 47°
2026-05-04 02:43 56.83275 -65.18620 36861 ft 536 kts 47°
2026-05-04 02:43 56.88923 -65.09714 36883 ft 536 kts 46°
2026-05-04 02:44 56.94537 -65.00781 36887 ft 534 kts 47°
2026-05-04 02:44 57.00125 -64.91784 36890 ft 534 kts 47°
2026-05-04 02:45 57.05676 -64.82840 36881 ft 535 kts 49°
2026-05-04 02:45 57.11200 -64.73713 36892 ft 534 kts 49°
2026-05-04 02:46 57.16735 -64.64582 36898 ft 535 kts 49°
2026-05-04 02:46 57.22331 -64.55530 36899 ft 535 kts 46°
2026-05-04 02:47 57.27936 -64.46615 36896 ft 534 kts 46°
2026-05-04 02:47 57.33528 -64.37601 36918 ft 532 kts 49°
2026-05-04 02:48 57.39000 -64.28415 36908 ft 531 kts 49°
2026-05-04 02:48 57.44519 -64.19248 36914 ft 533 kts 48°
2026-05-04 02:49 57.50010 -64.10138 36917 ft 532 kts 48°
2026-05-04 02:49 57.55505 -64.00912 36916 ft 531 kts 49°
2026-05-04 02:50 57.60987 -63.91666 36921 ft 532 kts 47°
2026-05-04 02:50 57.66508 -63.82454 36919 ft 532 kts 48°
2026-05-04 02:51 57.71992 -63.73175 36914 ft 532 kts 48°
2026-05-04 02:51 57.77434 -63.63942 36920 ft 532 kts 48°
2026-05-04 02:52 57.82923 -63.54587 36907 ft 533 kts 49°
2026-05-04 02:52 57.88364 -63.45125 36908 ft 534 kts 50°
2026-05-04 02:53 57.93824 -63.35606 36897 ft 536 kts 49°
2026-05-04 02:53 57.99274 -63.26167 36903 ft 535 kts 50°
2026-05-04 02:54 58.04570 -63.16349 36894 ft 534 kts 51°
2026-05-04 02:54 58.09782 -63.06340 36899 ft 535 kts 51°
2026-05-04 02:55 58.17553 -62.91228 36883 ft 534 kts 52°
2026-05-04 02:56 58.22718 -62.81241 36878 ft 533 kts 53°
2026-05-04 02:56 58.27861 -62.71118 36875 ft 532 kts 53°
2026-05-04 02:57 58.33027 -62.61006 36867 ft 533 kts 53°
2026-05-04 02:57 58.38187 -62.50866 36859 ft 533 kts 51°
2026-05-04 02:58 58.43305 -62.40819 36861 ft 531 kts 52°
2026-05-04 02:58 58.48447 -62.30684 36854 ft 531 kts 51°
2026-05-04 02:59 58.53567 -62.20514 36859 ft 531 kts 52°
2026-05-04 02:59 58.58700 -62.10339 36859 ft 531 kts 52°
2026-05-04 03:00 58.63712 -62.00086 36858 ft 530 kts 53°
2026-05-04 03:00 58.68809 -61.89817 36864 ft 532 kts 52°
2026-05-04 03:01 58.73935 -61.79553 36862 ft 532 kts 53°
2026-05-04 03:01 58.79008 -61.69132 36853 ft 533 kts 54°
2026-05-04 03:02 58.84039 -61.58729 36858 ft 533 kts 54°
2026-05-04 03:02 58.89141 -61.48342 36868 ft 532 kts 52°
2026-05-04 03:03 58.94235 -61.37965 36865 ft 531 kts 53°
2026-05-04 03:03 58.99240 -61.27466 36870 ft 530 kts 54°
2026-05-04 03:04 59.04239 -61.16909 36868 ft 531 kts 52°
2026-05-04 03:04 59.09256 -61.06524 36874 ft 529 kts 52°
2026-05-04 03:05 59.14270 -60.96042 36875 ft 529 kts 52°
2026-05-04 03:05 59.19248 -60.85490 36878 ft 528 kts 55°
2026-05-04 03:06 59.24167 -60.74945 36875 ft 529 kts 53°
2026-05-04 03:06 59.29118 -60.64368 36893 ft 527 kts 54°
2026-05-04 03:07 59.34021 -60.53713 36893 ft 527 kts 54°
2026-05-04 03:07 59.38950 -60.43062 36879 ft 527 kts 54°
2026-05-04 03:08 59.43892 -60.32410 36894 ft 528 kts 54°
2026-05-04 03:08 59.48849 -60.21920 36892 ft 526 kts 52°
2026-05-04 03:09 59.53809 -60.11387 36895 ft 524 kts 54°
2026-05-04 03:09 59.58661 -60.00669 36881 ft 524 kts 54°
2026-05-04 03:10 59.63485 -59.89854 36894 ft 526 kts 54°
2026-05-04 03:10 59.68322 -59.79100 36894 ft 527 kts 53°
2026-05-04 03:11 59.73220 -59.68320 36896 ft 525 kts 54°
2026-05-04 03:11 59.78084 -59.57499 36895 ft 525 kts 53°
2026-05-04 03:12 59.82934 -59.46650 36894 ft 525 kts 53°
2026-05-04 03:12 59.87753 -59.35739 36892 ft 524 kts 55°
2026-05-04 03:13 59.92547 -59.24804 36898 ft 524 kts 54°
2026-05-04 03:13 59.97308 -59.13959 36898 ft 523 kts 55°
2026-05-04 03:14 60.02087 -59.02990 36901 ft 524 kts 53°
2026-05-04 03:14 60.06885 -58.92028 36893 ft 523 kts 55°
2026-05-04 03:15 60.11590 -58.81047 36900 ft 522 kts 56°
2026-05-04 03:15 60.16293 -58.69950 36903 ft 522 kts 56°
2026-05-04 03:16 60.21006 -58.58839 36900 ft 523 kts 56°
2026-05-04 03:16 60.25767 -58.47777 36907 ft 523 kts 55°
2026-05-04 03:17 60.30495 -58.36785 36901 ft 522 kts 54°
2026-05-04 03:17 60.35245 -58.25730 36907 ft 521 kts 56°
2026-05-04 03:18 60.39947 -58.14575 36911 ft 521 kts 56°
2026-05-04 03:18 60.44602 -58.03336 36904 ft 521 kts 57°
2026-05-04 03:19 60.49181 -57.91929 36904 ft 521 kts 58°
2026-05-04 03:19 60.53512 -57.80275 36923 ft 519 kts 61°
2026-05-04 03:20 60.57744 -57.68403 36926 ft 520 kts 61°
2026-05-04 03:20 60.62072 -57.56577 36927 ft 522 kts 58°
2026-05-04 03:21 60.66464 -57.44818 36929 ft 520 kts 58°
2026-05-04 03:21 60.70777 -57.32970 36913 ft 519 kts 60°
2026-05-04 03:22 60.75030 -57.21133 36935 ft 521 kts 58°
2026-05-04 03:22 60.79413 -57.09314 36938 ft 521 kts 58°
2026-05-04 03:23 60.83712 -56.97417 36918 ft 519 kts 61°
2026-05-04 03:23 60.87983 -56.85439 36933 ft 521 kts 58°
2026-05-04 03:24 60.92246 -56.73566 36936 ft 519 kts 60°
2026-05-04 03:24 60.96500 -56.61561 36941 ft 519 kts 59°
2026-05-04 03:25 61.00721 -56.49505 36941 ft 518 kts 61°
2026-05-04 03:25 61.04938 -56.37410 36947 ft 520 kts 59°
2026-05-04 03:26 61.09113 -56.25378 36942 ft 518 kts 60°
2026-05-04 03:26 61.13295 -56.13219 36957 ft 519 kts 61°
2026-05-04 03:27 61.17489 -56.01040 36960 ft 520 kts 59°
2026-05-04 03:27 61.21725 -55.88915 36966 ft 518 kts 62°
2026-05-04 03:28 61.25809 -55.76700 36968 ft 519 kts 60°
2026-05-04 03:28 61.29962 -55.64433 36973 ft 518 kts 62°
2026-05-04 03:29 61.34091 -55.52165 36988 ft 517 kts 60°
2026-05-04 03:29 61.38214 -55.39892 36988 ft 517 kts 60°
2026-05-04 03:30 61.42333 -55.27594 36997 ft 516 kts 62°
2026-05-04 03:30 61.46429 -55.15357 36995 ft 517 kts 60°
2026-05-04 03:31 61.50563 -55.03100 37005 ft 515 kts 59°
2026-05-04 03:31 61.54614 -54.90764 37003 ft 513 kts 63°
2026-05-04 03:32 61.58662 -54.78375 37016 ft 515 kts 60°
2026-05-04 03:32 61.62702 -54.66106 37017 ft 514 kts 60°
2026-05-04 03:33 61.66738 -54.53697 37026 ft 513 kts 61°
2026-05-04 03:33 61.70737 -54.41262 37029 ft 512 kts 61°
2026-05-04 03:34 61.74687 -54.28763 37035 ft 512 kts 63°
2026-05-04 03:34 61.78575 -54.16261 37036 ft 514 kts 63°
2026-05-04 03:35 61.82544 -54.03651 37048 ft 515 kts 60°
2026-05-04 03:35 61.86561 -53.91141 37051 ft 513 kts 62°
2026-05-04 03:36 61.90527 -53.78570 37058 ft 512 kts 62°
2026-05-04 03:36 61.94448 -53.66043 37064 ft 513 kts 62°
2026-05-04 03:37 61.98378 -53.53396 37065 ft 512 kts 63°
2026-05-04 03:37 62.02238 -53.40651 37071 ft 512 kts 62°
2026-05-04 03:38 62.06092 -53.27872 37076 ft 513 kts 62°
2026-05-04 03:38 62.10001 -53.15247 37086 ft 513 kts 62°
2026-05-04 03:39 62.13873 -53.02489 37084 ft 512 kts 63°
2026-05-04 03:39 62.17699 -52.89617 37091 ft 512 kts 62°
2026-05-04 03:40 62.21584 -52.76821 37090 ft 513 kts 61°
2026-05-04 03:40 62.25426 -52.64061 37099 ft 512 kts 63°
2026-05-04 03:41 62.29241 -52.51133 37099 ft 513 kts 62°
2026-05-04 03:41 62.33062 -52.38187 37093 ft 513 kts 62°
2026-05-04 03:42 62.36883 -52.25217 37106 ft 513 kts 63°
2026-05-04 03:42 62.40672 -52.12173 37116 ft 513 kts 62°
2026-05-04 03:43 62.44428 -51.99187 37117 ft 514 kts 63°
2026-05-04 03:43 62.48205 -51.86064 37118 ft 514 kts 64°
2026-05-04 03:44 62.51943 -51.72880 37119 ft 514 kts 63°
2026-05-04 03:44 62.55676 -51.59669 37126 ft 514 kts 64°
2026-05-04 03:45 62.59373 -51.46504 37128 ft 515 kts 62°
2026-05-04 03:45 62.63159 -51.33315 37143 ft 514 kts 63°
2026-05-04 03:46 62.66868 -51.20027 37135 ft 514 kts 63°
2026-05-04 03:46 62.70597 -51.06740 37134 ft 514 kts 63°
2026-05-04 03:47 62.74262 -50.93498 37143 ft 514 kts 63°
2026-05-04 03:47 62.77916 -50.80087 37140 ft 514 kts 63°
2026-05-04 03:48 62.81548 -50.66616 37145 ft 515 kts 63°
2026-05-04 03:48 62.85230 -50.53176 37143 ft 515 kts 62°
2026-05-04 03:49 62.88896 -50.39829 37143 ft 514 kts 63°
2026-05-04 03:49 62.92514 -50.26324 37149 ft 514 kts 64°
2026-05-04 03:50 62.96045 -50.12668 37145 ft 515 kts 65°
2026-05-04 03:50 62.99556 -49.98931 37151 ft 514 kts 68°
2026-05-04 03:51 63.02540 -49.84665 37130 ft 513 kts 70°
2026-05-04 03:51 63.05338 -49.70291 37124 ft 514 kts 70°
2026-05-04 03:52 63.08094 -49.55746 37134 ft 514 kts 71°
2026-05-04 03:52 63.10816 -49.41157 37127 ft 514 kts 70°
2026-05-04 03:53 63.13576 -49.26592 37125 ft 514 kts 71°
2026-05-04 03:53 63.16220 -49.12062 37123 ft 513 kts 72°
2026-05-04 03:54 63.18898 -48.97394 37126 ft 514 kts 71°
2026-05-04 03:54 63.21604 -48.82736 37132 ft 513 kts 73°
2026-05-04 03:55 63.24241 -48.68013 37125 ft 514 kts 71°
2026-05-04 03:55 63.26919 -48.53406 37120 ft 514 kts 73°
2026-05-04 03:56 63.29563 -48.38659 37131 ft 514 kts 73°
2026-05-04 03:56 63.32178 -48.23871 37135 ft 514 kts 73°
2026-05-04 03:57 63.34775 -48.09042 37127 ft 514 kts 72°
2026-05-04 03:57 63.37377 -47.94317 37138 ft 515 kts 71°
2026-05-04 03:58 63.41346 -47.72035 37143 ft 515 kts 72°
2026-05-04 03:58 63.43902 -47.57112 37141 ft 514 kts 75°
2026-05-04 03:59 63.46367 -47.42200 37145 ft 515 kts 74°
2026-05-04 03:59 63.48934 -47.27238 37153 ft 515 kts 73°
2026-05-04 04:00 63.51464 -47.12217 37157 ft 516 kts 72°
2026-05-04 04:00 63.53958 -46.97130 37156 ft 516 kts 74°
2026-05-04 04:01 63.56398 -46.81977 37153 ft 517 kts 73°
2026-05-04 04:01 63.58890 -46.66946 37151 ft 517 kts 73°
2026-05-04 04:02 63.61369 -46.51799 37167 ft 517 kts 73°
2026-05-04 04:02 63.63864 -46.36640 37154 ft 517 kts 75°
2026-05-04 04:03 63.66301 -46.21418 37154 ft 518 kts 73°
2026-05-04 04:03 63.68753 -46.06267 37141 ft 518 kts 72°
2026-05-04 04:04 63.71221 -45.91016 37143 ft 517 kts 73°
2026-05-04 04:04 63.73630 -45.75718 37137 ft 517 kts 74°
2026-05-04 04:05 63.75954 -45.60332 37134 ft 518 kts 75°
2026-05-04 04:05 63.78222 -45.44960 37126 ft 519 kts 75°
2026-05-04 04:06 63.80545 -45.29490 37129 ft 520 kts 75°
2026-05-04 04:06 63.82901 -45.14010 37121 ft 519 kts 75°
2026-05-04 04:07 63.85262 -44.98549 37122 ft 519 kts 74°
2026-05-04 04:07 63.87559 -44.83141 37119 ft 519 kts 74°
2026-05-04 04:08 63.89852 -44.67545 37119 ft 522 kts 74°
2026-05-04 04:08 63.92157 -44.51917 37113 ft 522 kts 73°
2026-05-04 04:09 63.94420 -44.36263 37112 ft 521 kts 76°
2026-05-04 04:09 63.96627 -44.20556 37108 ft 522 kts 74°
2026-05-04 04:10 63.98886 -44.04966 37108 ft 522 kts 74°
2026-05-04 04:10 64.01121 -43.89267 37097 ft 521 kts 75°
2026-05-04 04:11 64.03304 -43.73501 37097 ft 521 kts 77°
2026-05-04 04:11 64.05459 -43.57699 37089 ft 522 kts 75°
2026-05-04 04:12 64.07592 -43.41982 37089 ft 522 kts 75°
2026-05-04 04:12 64.09777 -43.26161 37070 ft 522 kts 74°
2026-05-04 04:13 64.11972 -43.10275 37066 ft 524 kts 75°
2026-05-04 04:13 64.14070 -42.94389 37061 ft 525 kts 76°
2026-05-04 04:14 64.16159 -42.78362 37061 ft 525 kts 77°
2026-05-04 04:14 64.18199 -42.62315 37060 ft 524 kts 77°
2026-05-04 04:15 64.20215 -42.46210 37064 ft 525 kts 78°
2026-05-04 04:15 64.22209 -42.30100 37072 ft 524 kts 77°
2026-05-04 04:16 64.24261 -42.14153 37079 ft 523 kts 75°
2026-05-04 04:16 64.26368 -41.98151 37105 ft 522 kts 77°
2026-05-04 04:17 64.28319 -41.82054 37104 ft 522 kts 79°
2026-05-04 04:17 64.30267 -41.65915 37167 ft 524 kts 77°
2026-05-04 04:18 64.32247 -41.49738 37144 ft 525 kts 75°
2026-05-04 04:18 64.34246 -41.33653 37174 ft 525 kts 78°
2026-05-04 04:19 64.36114 -41.17362 37171 ft 525 kts 78°
2026-05-04 04:19 64.38007 -41.01053 37174 ft 526 kts 76°
2026-05-04 04:20 64.39916 -40.84752 37172 ft 525 kts 79°
2026-05-04 04:20 64.41782 -40.68512 37181 ft 527 kts 76°
2026-05-04 04:21 64.43657 -40.52125 37180 ft 527 kts 77°
2026-05-04 04:21 64.45554 -40.35724 37182 ft 527 kts 77°
2026-05-04 04:22 64.47420 -40.19307 37179 ft 527 kts 77°
2026-05-04 04:22 64.49191 -40.02847 37178 ft 527 kts 78°
2026-05-04 04:23 64.51168 -39.86457 37180 ft 529 kts 74°
2026-05-04 04:23 64.53445 -39.70311 37181 ft 530 kts 74°
2026-05-04 04:24 64.55710 -39.54034 37182 ft 529 kts 74°
2026-05-04 04:24 64.57898 -39.37709 37185 ft 529 kts 73°
2026-05-04 04:25 64.60072 -39.21346 37184 ft 529 kts 74°
2026-05-04 04:25 64.62217 -39.05052 37176 ft 530 kts 76°
2026-05-04 04:26 64.64365 -38.88605 37173 ft 531 kts 75°
2026-05-04 04:26 64.66517 -38.72114 37174 ft 531 kts 74°
2026-05-04 04:27 64.68663 -38.55615 37172 ft 531 kts 74°
2026-05-04 04:27 64.70756 -38.39188 37171 ft 531 kts 75°
2026-05-04 04:28 64.72791 -38.22572 37173 ft 532 kts 76°
2026-05-04 04:28 64.74789 -38.05865 37172 ft 533 kts 76°
2026-05-04 04:29 64.76797 -37.89126 37168 ft 534 kts 76°
2026-05-04 04:29 64.78857 -37.72408 37168 ft 533 kts 76°
2026-05-04 04:30 64.80872 -37.55784 37168 ft 533 kts 74°
2026-05-04 04:30 64.82915 -37.39047 37144 ft 535 kts 77°
2026-05-04 04:31 64.84835 -37.22163 37161 ft 535 kts 78°
2026-05-04 04:31 64.86703 -37.05236 37160 ft 535 kts 76°
2026-05-04 04:32 64.88629 -36.88446 37162 ft 535 kts 77°
2026-05-04 04:32 64.90527 -36.71518 37205 ft 535 kts 76°
2026-05-04 04:33 64.92476 -36.54573 37161 ft 537 kts 77°
2026-05-04 04:33 64.94329 -36.37497 37155 ft 538 kts 77°
2026-05-04 04:34 64.96171 -36.20360 37154 ft 539 kts 77°
2026-05-04 04:34 64.98034 -36.03360 37153 ft 539 kts 75°
2026-05-04 04:35 64.99913 -35.86245 37151 ft 538 kts 77°
2026-05-04 04:35 65.01739 -35.69081 37148 ft 538 kts 78°
2026-05-04 04:36 65.03190 -35.54752 37150 ft 538 kts 78°
2026-05-04 04:36 65.04928 -35.37518 37148 ft 539 kts 78°
2026-05-04 04:37 65.08445 -35.03138 37180 ft 538 kts 77°
2026-05-04 04:38 65.10196 -34.85904 37143 ft 538 kts 78°
2026-05-04 04:38 65.11855 -34.68594 37141 ft 538 kts 79°
2026-05-04 04:39 65.13740 -34.48421 37139 ft 539 kts 79°
2026-05-04 04:39 65.15391 -34.31047 37136 ft 539 kts 79°
2026-05-04 04:40 65.16787 -34.16619 37169 ft 538 kts 79°
2026-05-04 04:40 65.18407 -33.99204 37141 ft 540 kts 79°
2026-05-04 04:41 65.20000 -33.81730 37140 ft 541 kts 77°
2026-05-04 04:41 65.21581 -33.64344 37136 ft 540 kts 79°
2026-05-04 04:42 65.23132 -33.46818 37138 ft 541 kts 78°
2026-05-04 04:42 65.24650 -33.29259 37151 ft 541 kts 80°
2026-05-04 04:43 65.26175 -33.11668 37138 ft 542 kts 78°
2026-05-04 04:43 65.27726 -32.94071 37140 ft 541 kts 80°
2026-05-04 04:44 65.29127 -32.76535 37127 ft 542 kts 81°
2026-05-04 04:44 65.30555 -32.58856 37138 ft 541 kts 79°
2026-05-04 04:45 65.31995 -32.41190 37153 ft 541 kts 79°
2026-05-04 04:47 65.36914 -31.79126 37141 ft 543 kts 81°
2026-05-04 04:47 65.38254 -31.61294 37140 ft 543 kts 81°
2026-05-04 04:48 65.39566 -31.43422 37146 ft 544 kts 79°
2026-05-04 04:49 65.42779 -30.98754 37135 ft 545 kts 82°
2026-05-04 04:49 65.44022 -30.80766 37137 ft 546 kts 82°
2026-05-04 04:50 65.45268 -30.62895 37141 ft 546 kts 80°
2026-05-04 04:50 65.46525 -30.44878 37129 ft 546 kts 80°
2026-05-04 04:51 65.47783 -30.26893 37140 ft 544 kts 80°
2026-05-04 04:51 65.48929 -30.08911 37133 ft 543 kts 81°
2026-05-04 04:52 65.50116 -29.91045 37129 ft 543 kts 79°
2026-05-04 04:52 65.51591 -29.73195 37130 ft 544 kts 79°
2026-05-04 04:53 65.53075 -29.55288 37129 ft 545 kts 79°
2026-05-04 04:53 65.54526 -29.37322 37128 ft 546 kts 78°
2026-05-04 04:54 65.55992 -29.19358 37126 ft 545 kts 79°
2026-05-04 04:54 65.57384 -29.01472 37124 ft 546 kts 79°
2026-05-04 04:55 65.58757 -28.83433 37119 ft 546 kts 79°
2026-05-04 04:55 65.60161 -28.65381 37116 ft 546 kts 79°
2026-05-04 04:56 65.61543 -28.47308 37119 ft 546 kts 81°
2026-05-04 04:56 65.62833 -28.29312 37116 ft 547 kts 79°
2026-05-04 04:57 65.64123 -28.11189 37128 ft 547 kts 80°
2026-05-04 04:57 65.65412 -27.93053 37106 ft 546 kts 80°
2026-05-04 04:58 65.66656 -27.74919 37103 ft 545 kts 81°
2026-05-04 04:58 65.67867 -27.56749 37116 ft 546 kts 81°
2026-05-04 04:59 65.69051 -27.38647 37115 ft 547 kts 82°
2026-05-04 04:59 65.70225 -27.20398 37116 ft 547 kts 82°
2026-05-04 05:00 65.71413 -27.02152 37118 ft 547 kts 82°
2026-05-04 05:01 65.73168 -26.74763 37119 ft 547 kts 81°
2026-05-04 05:01 65.74298 -26.56603 37116 ft 547 kts 82°
2026-05-04 05:02 65.75353 -26.38278 37141 ft 547 kts 82°
2026-05-04 05:02 65.76436 -26.19963 37113 ft 547 kts 83°
2026-05-04 05:03 65.77451 -26.01601 37118 ft 548 kts 82°
2026-05-04 05:04 65.79563 -25.65015 37105 ft 547 kts 84°
2026-05-04 05:04 65.80502 -25.46602 37149 ft 548 kts 83°
2026-05-04 05:06 65.84148 -24.73085 37108 ft 547 kts 84°
2026-05-04 05:07 65.85012 -24.54602 37134 ft 547 kts 85°
2026-05-04 05:07 65.85887 -24.36164 37114 ft 547 kts 84°
2026-05-04 05:09 65.89522 -23.53239 37127 ft 548 kts 87°
2026-05-04 05:10 65.90176 -23.34606 37139 ft 551 kts 86°
2026-05-04 05:10 65.90891 -23.15952 37154 ft 550 kts 86°
2026-05-04 05:11 65.91600 -22.97305 37145 ft 550 kts 84°
2026-05-04 05:11 65.92317 -22.78663 37185 ft 550 kts 86°
2026-05-04 05:12 65.92928 -22.59981 37149 ft 551 kts 86°
2026-05-04 05:12 65.93546 -22.41424 37148 ft 551 kts 85°
2026-05-04 05:13 65.94192 -22.22729 37150 ft 550 kts 86°
2026-05-04 05:13 65.94778 -22.04008 37149 ft 551 kts 85°
2026-05-04 05:14 65.95344 -21.85246 37157 ft 552 kts 88°
2026-05-04 05:14 65.95801 -21.66572 37139 ft 554 kts 86°
2026-05-04 05:15 65.96371 -21.47745 37150 ft 553 kts 86°
2026-05-04 05:15 65.96896 -21.28925 37146 ft 553 kts 86°
2026-05-04 05:16 65.97364 -21.10086 37140 ft 553 kts 88°
2026-05-04 05:16 65.97691 -20.91344 37132 ft 553 kts 88°
2026-05-04 05:17 65.98056 -20.72475 37129 ft 553 kts 86°
2026-05-04 05:17 65.98489 -20.53636 37133 ft 553 kts 87°
2026-05-04 05:18 65.98916 -20.34825 37136 ft 552 kts 86°
2026-05-04 05:18 65.99267 -20.16090 37145 ft 552 kts 88°
2026-05-04 05:19 65.99560 -19.97273 37131 ft 551 kts 90°
2026-05-04 05:19 66.00082 -19.78493 37129 ft 551 kts 85°
2026-05-04 05:20 66.00756 -19.59778 37130 ft 549 kts 87°
2026-05-04 05:20 66.01284 -19.41042 37129 ft 550 kts 86°
2026-05-04 05:21 66.01798 -19.22394 37141 ft 550 kts 86°
2026-05-04 05:21 66.02283 -19.03612 37126 ft 551 kts 86°
2026-05-04 05:22 66.02768 -18.84820 37127 ft 551 kts 86°
2026-05-04 05:22 66.03245 -18.66013 37133 ft 551 kts 86°
2026-05-04 05:23 66.03650 -18.47327 37119 ft 551 kts 89°
2026-05-04 05:23 66.04071 -18.28517 37120 ft 551 kts 87°
2026-05-04 05:24 66.04463 -18.09689 37117 ft 551 kts 88°
2026-05-04 05:24 66.04826 -17.90841 37114 ft 551 kts 88°
2026-05-04 05:25 66.05165 -17.71991 37110 ft 551 kts 88°
2026-05-04 05:25 66.05492 -17.53264 37113 ft 551 kts 89°
2026-05-04 05:26 66.05737 -17.34413 37110 ft 551 kts 89°
2026-05-04 05:26 66.06022 -17.15578 37110 ft 550 kts 89°
2026-05-04 05:28 66.07001 -16.40456 37088 ft 548 kts 90°
2026-05-04 05:29 66.07112 -16.21699 37086 ft 548 kts 91°
2026-05-04 05:29 66.07221 -16.03050 37086 ft 548 kts 91°
2026-05-04 05:31 66.07559 -15.27949 37062 ft 547 kts 90°
2026-05-04 05:32 66.07584 -15.09189 37064 ft 548 kts 90°
2026-05-04 05:33 66.07546 -14.81045 37057 ft 548 kts 90°
2026-05-04 05:33 66.07546 -14.62295 37048 ft 546 kts 90°
2026-05-04 05:34 66.07491 -14.43754 37033 ft 545 kts 92°
2026-05-04 05:34 66.07369 -14.25087 37037 ft 545 kts 91°
2026-05-04 05:35 66.07260 -14.06415 37027 ft 545 kts 92°
2026-05-04 05:35 66.07116 -13.87742 37041 ft 546 kts 91°
2026-05-04 05:36 66.07052 -13.69242 37016 ft 543 kts 91°
2026-05-04 05:36 66.06951 -13.50651 37005 ft 543 kts 91°
2026-05-04 05:37 66.06788 -13.32068 37004 ft 543 kts 92°
2026-05-04 05:37 66.06530 -13.13485 36995 ft 543 kts 94°
2026-05-04 05:38 66.06066 -12.85733 36995 ft 543 kts 92°
2026-05-04 05:38 66.05842 -12.67189 36987 ft 541 kts 92°
2026-05-04 05:39 66.05389 -12.39413 36974 ft 542 kts 93°
2026-05-04 05:40 66.04952 -12.11676 36984 ft 543 kts 92°
2026-05-04 05:40 66.04609 -11.93140 36968 ft 541 kts 94°
2026-05-04 05:41 66.04139 -11.74656 36956 ft 542 kts 96°
2026-05-04 05:41 66.03710 -11.56147 36959 ft 542 kts 95°
2026-05-04 05:42 66.03251 -11.37772 36945 ft 542 kts 96°
2026-05-04 05:42 66.02771 -11.19288 36967 ft 542 kts 97°
2026-05-04 05:43 66.02325 -11.00820 36936 ft 540 kts 96°
2026-05-04 05:45 66.00340 -10.27362 36921 ft 539 kts 97°
2026-05-04 05:47 65.96507 -9.54652 36899 ft 539 kts 104°
2026-05-04 05:47 65.95162 -9.36532 36909 ft 541 kts 101°
2026-05-04 05:48 65.93963 -9.18413 36902 ft 542 kts 102°
2026-05-04 05:48 65.92709 -9.00216 36901 ft 542 kts 102°
2026-05-04 05:49 65.91379 -8.82067 36894 ft 541 kts 104°
2026-05-04 05:49 65.90055 -8.63911 36897 ft 542 kts 104°
2026-05-04 05:51 65.84610 -7.91769 36889 ft 540 kts 103°
2026-05-04 05:52 65.83213 -7.73733 36879 ft 540 kts 104°
2026-05-04 05:52 65.81710 -7.55814 36881 ft 540 kts 104°
2026-05-04 05:54 65.75764 -6.84391 36872 ft 540 kts 105°
2026-05-04 05:55 65.74180 -6.66524 36868 ft 541 kts 105°
2026-05-04 05:55 65.72626 -6.48604 36876 ft 541 kts 104°
2026-05-04 05:56 65.71008 -6.30770 36867 ft 540 kts 105°
2026-05-04 05:56 65.69363 -6.13091 36867 ft 541 kts 107°
2026-05-04 05:57 65.67711 -5.95271 36863 ft 542 kts 104°
2026-05-04 05:57 65.66098 -5.77462 36864 ft 540 kts 107°
2026-05-04 05:58 65.64419 -5.59726 36858 ft 540 kts 107°
2026-05-04 05:58 65.62682 -5.42162 36862 ft 540 kts 107°
2026-05-04 05:59 65.60975 -5.24446 36855 ft 540 kts 105°
2026-05-04 05:59 65.59295 -5.06740 36858 ft 540 kts 106°
2026-05-04 06:00 65.57524 -4.89143 36852 ft 539 kts 108°
2026-05-04 06:00 65.55736 -4.71541 36853 ft 539 kts 108°
2026-05-04 06:01 65.53975 -4.54059 36841 ft 539 kts 106°
2026-05-04 06:03 65.46594 -3.83899 36841 ft 540 kts 109°
2026-05-04 06:05 65.37939 -3.05468 36834 ft 539 kts 109°
2026-05-04 06:06 65.35898 -2.88190 36827 ft 539 kts 109°
2026-05-04 06:06 65.33865 -2.70916 36827 ft 539 kts 110°
2026-05-04 06:07 65.31855 -2.53591 36830 ft 539 kts 108°
2026-05-04 06:07 65.29844 -2.36346 36829 ft 538 kts 109°
2026-05-04 06:08 65.27787 -2.19275 36795 ft 538 kts 111°
2026-05-04 06:08 65.25648 -2.02133 36824 ft 540 kts 111°
2026-05-04 06:09 65.23485 -1.84955 36819 ft 541 kts 111°
2026-05-04 06:11 65.15014 -1.16471 36811 ft 538 kts 111°
2026-05-04 06:13 65.06008 -0.48721 36800 ft 539 kts 111°
2026-05-04 06:14 64.98527 0.10609 36794 ft 539 kts 107°
2026-05-04 06:15 64.96870 0.27848 36787 ft 538 kts 107°
2026-05-04 06:15 64.95208 0.45095 36794 ft 539 kts 105°
2026-05-04 06:16 64.93559 0.62240 36791 ft 539 kts 106°
2026-05-04 06:16 64.91872 0.79453 36779 ft 539 kts 107°
2026-05-04 06:17 64.90194 0.96671 36780 ft 539 kts 105°
2026-05-04 06:17 64.88461 1.13805 36773 ft 538 kts 107°
2026-05-04 06:18 64.86735 1.30939 36766 ft 538 kts 108°
2026-05-04 06:20 64.79519 1.99011 36750 ft 537 kts 108°
2026-05-04 06:21 64.74941 2.41328 36741 ft 537 kts 108°
2026-05-04 06:22 64.73024 2.58215 36737 ft 536 kts 110°
2026-05-04 06:25 64.59342 3.75701 36702 ft 538 kts 109°
2026-05-04 06:26 64.57387 3.92483 36687 ft 537 kts 110°
2026-05-04 06:26 64.55324 4.09158 36683 ft 536 kts 111°
2026-05-04 06:27 64.50129 4.50478 36655 ft 533 kts 112°
2026-05-04 06:28 64.47966 4.66948 36654 ft 534 kts 111°
2026-05-04 06:28 64.45864 4.83359 36640 ft 535 kts 110°
2026-05-04 06:29 64.43745 4.99828 36641 ft 533 kts 113°
2026-05-04 06:29 64.41563 5.16230 36636 ft 534 kts 111°
2026-05-04 06:30 64.39416 5.32646 36637 ft 533 kts 111°
2026-05-04 06:30 64.37253 5.49009 36631 ft 533 kts 113°
2026-05-04 06:31 64.35136 5.65320 36633 ft 534 kts 111°
2026-05-04 06:31 64.33108 5.81786 36632 ft 533 kts 111°
2026-05-04 06:33 64.24391 6.46876 36637 ft 533 kts 114°
2026-05-04 06:34 64.22228 6.63182 36634 ft 533 kts 112°
2026-05-04 06:34 64.20041 6.79435 36585 ft 532 kts 115°
2026-05-04 06:36 64.10913 7.44130 36627 ft 534 kts 114°
2026-05-04 06:37 64.08595 7.60285 36628 ft 534 kts 114°
2026-05-04 06:37 64.06259 7.76281 36628 ft 534 kts 115°
2026-05-04 06:38 64.03919 7.92388 36632 ft 534 kts 115°
2026-05-04 06:40 63.94445 8.56429 36656 ft 534 kts 116°
2026-05-04 06:40 63.92005 8.72375 36651 ft 535 kts 115°
2026-05-04 06:41 63.89578 8.88330 36654 ft 535 kts 116°
2026-05-04 06:41 63.87113 9.04128 36654 ft 535 kts 116°
2026-05-04 06:42 63.84588 9.19970 36659 ft 535 kts 114°
2026-05-04 06:44 63.74414 9.83311 36664 ft 538 kts 118°
2026-05-04 06:44 63.71772 9.99099 36664 ft 537 kts 119°
2026-05-04 06:45 63.69077 10.14829 36637 ft 538 kts 118°
2026-05-04 06:45 63.66485 10.30692 36664 ft 540 kts 116°
2026-05-04 06:46 63.63871 10.46386 36670 ft 539 kts 118°
2026-05-04 06:46 63.61157 10.62103 36676 ft 539 kts 120°
2026-05-04 06:48 63.50355 11.24451 36684 ft 534 kts 119°
2026-05-04 06:50 63.39436 11.85909 36674 ft 529 kts 120°
2026-05-04 06:51 63.36664 12.01107 36670 ft 529 kts 119°
2026-05-04 06:51 63.33941 12.16341 36682 ft 529 kts 119°
2026-05-04 06:52 63.31161 12.31483 36673 ft 528 kts 122°
2026-05-04 06:52 63.28281 12.46527 36677 ft 530 kts 121°
2026-05-04 06:53 63.25439 12.61547 36672 ft 531 kts 121°
2026-05-04 06:53 63.22577 12.76636 36671 ft 530 kts 122°
2026-05-04 06:54 63.19726 12.91723 36662 ft 530 kts 121°
2026-05-04 06:54 63.16851 13.06767 36656 ft 531 kts 122°
2026-05-04 06:55 63.13902 13.21603 36648 ft 531 kts 123°
2026-05-04 06:55 63.10977 13.36639 36637 ft 532 kts 122°
2026-05-04 06:57 62.99104 13.96135 36634 ft 532 kts 122°
2026-05-04 06:58 62.96168 14.11071 36629 ft 531 kts 123°
2026-05-04 06:58 62.93158 14.25880 36624 ft 531 kts 123°
2026-05-04 06:59 62.90100 14.40621 36626 ft 530 kts 124°
2026-05-04 06:59 62.87069 14.55270 36629 ft 531 kts 123°
2026-05-04 07:01 62.74754 15.13920 36624 ft 530 kts 124°
2026-05-04 07:02 62.71622 15.28337 36626 ft 529 kts 124°
2026-05-04 07:02 62.68514 15.42900 36648 ft 530 kts 124°
2026-05-04 07:03 62.65362 15.57353 36647 ft 529 kts 124°
2026-05-04 07:03 62.62172 15.71763 36620 ft 529 kts 125°
2026-05-04 07:04 62.58993 15.86051 36647 ft 528 kts 125°
2026-05-04 07:04 62.55828 16.00426 36648 ft 528 kts 125°
2026-05-04 07:05 62.52633 16.14732 36648 ft 528 kts 123°
2026-05-04 07:05 62.49479 16.29111 36648 ft 528 kts 123°
2026-05-04 07:06 62.44718 16.50420 36646 ft 527 kts 124°
2026-05-04 07:07 62.41497 16.64636 36649 ft 527 kts 124°
2026-05-04 07:09 62.28377 17.20824 36659 ft 525 kts 127°
2026-05-04 07:09 62.25057 17.34800 36662 ft 526 kts 125°
2026-05-04 07:10 62.21759 17.48814 36666 ft 527 kts 124°
2026-05-04 07:12 62.08260 18.04126 36674 ft 527 kts 127°
2026-05-04 07:12 62.04914 18.17894 36684 ft 526 kts 126°
2026-05-04 07:13 62.01548 18.31722 36662 ft 525 kts 127°
2026-05-04 07:13 61.98098 18.45417 36688 ft 525 kts 128°
2026-05-04 07:14 61.89532 18.79597 36696 ft 525 kts 128°
2026-05-04 07:15 61.86040 18.93198 36672 ft 525 kts 128°
2026-05-04 07:15 61.82554 19.06816 36703 ft 527 kts 128°
2026-05-04 07:16 61.79088 19.20455 36709 ft 527 kts 127°
2026-05-04 07:16 61.75683 19.34030 36700 ft 525 kts 128°
2026-05-04 07:17 61.72151 19.47482 36704 ft 524 kts 129°
2026-05-04 07:17 61.68620 19.60929 36706 ft 525 kts 128°
2026-05-04 07:18 61.65086 19.74394 36722 ft 525 kts 128°
2026-05-04 07:18 61.61560 19.87728 36722 ft 525 kts 128°
2026-05-04 07:19 61.58012 20.01118 36722 ft 525 kts 127°
2026-05-04 07:19 61.54463 20.14518 36721 ft 523 kts 130°
2026-05-04 07:20 61.50821 20.27739 36728 ft 525 kts 128°
2026-05-04 07:20 61.47286 20.41101 36735 ft 527 kts 123°
2026-05-04 07:22 61.35078 20.87804 36398 ft 521 kts 126°
2026-05-04 07:22 61.33257 20.94336 35697 ft 521 kts 126°
2026-05-04 07:23 61.31441 21.00830 35081 ft 519 kts 127°
2026-05-04 07:23 61.29629 21.07301 34427 ft 517 kts 127°
2026-05-04 07:23 61.27842 21.13666 33778 ft 517 kts 128°
2026-05-04 07:23 61.26032 21.20099 33022 ft 515 kts 128°
2026-05-04 07:24 61.24221 21.26518 32302 ft 513 kts 128°
2026-05-04 07:24 61.22419 21.32895 31570 ft 511 kts 129°
2026-05-04 07:24 61.20614 21.39256 30731 ft 511 kts 129°
2026-05-04 07:24 61.18810 21.45595 29967 ft 510 kts 129°
2026-05-04 07:25 61.17005 21.51926 29179 ft 508 kts 129°
2026-05-04 07:26 61.04693 21.94661 24561 ft 481 kts 128°
2026-05-04 07:27 61.02974 22.00563 23958 ft 477 kts 128°
2026-05-04 07:27 61.01844 22.04432 23558 ft 475 kts 128°
2026-05-04 07:27 61.00147 22.10231 22962 ft 470 kts 128°
2026-05-04 07:27 60.97923 22.17813 22051 ft 464 kts 127°
2026-05-04 07:28 60.96259 22.23468 21402 ft 460 kts 127°
2026-05-04 07:28 60.94606 22.29069 20755 ft 456 kts 127°
2026-05-04 07:28 60.92961 22.34633 20124 ft 452 kts 127°
2026-05-04 07:28 60.91337 22.40113 19509 ft 447 kts 127°
2026-05-04 07:29 60.90266 22.43718 19107 ft 445 kts 127°
2026-05-04 07:29 60.88660 22.49116 18508 ft 441 kts 127°
2026-05-04 07:29 60.87065 22.54462 17885 ft 437 kts 127°
2026-05-04 07:29 60.85485 22.59745 17214 ft 433 kts 127°
2026-05-04 07:30 60.83913 22.64966 16574 ft 428 kts 128°
2026-05-04 07:30 60.81791 22.71711 15733 ft 422 kts 129°
2026-05-04 07:30 60.80179 22.76703 15140 ft 417 kts 129°
2026-05-04 07:30 60.79098 22.80033 14738 ft 414 kts 129°
2026-05-04 07:31 60.77003 22.86486 13971 ft 408 kts 129°
2026-05-04 07:31 60.75969 22.89679 13568 ft 406 kts 129°
2026-05-04 07:33 60.65597 23.21729 10028 ft 353 kts 128°
2026-05-04 07:33 60.64284 23.25769 9814 ft 340 kts 128°
2026-05-04 07:33 60.63014 23.29673 9753 ft 322 kts 129°
2026-05-04 07:33 60.61815 23.33355 9746 ft 303 kts 129°
2026-05-04 07:34 60.60675 23.36844 9750 ft 292 kts 129°
2026-05-04 07:34 60.59545 23.40270 9745 ft 291 kts 129°
2026-05-04 07:34 60.58412 23.43686 9742 ft 292 kts 130°
2026-05-04 07:34 60.57279 23.47101 9743 ft 292 kts 129°
2026-05-04 07:35 60.56144 23.50525 9741 ft 292 kts 129°
2026-05-04 07:35 60.55013 23.53944 9740 ft 292 kts 129°
2026-05-04 07:35 60.53897 23.57316 9741 ft 292 kts 129°
2026-05-04 07:35 60.52766 23.60730 9741 ft 292 kts 129°
2026-05-04 07:36 60.51633 23.64150 9723 ft 291 kts 129°
2026-05-04 07:36 60.50502 23.67557 9736 ft 291 kts 129°
2026-05-04 07:38 60.44031 23.92597 9745 ft 308 kts 88°
2026-05-04 07:38 60.44288 23.96919 9737 ft 309 kts 86°
2026-05-04 07:38 60.44564 24.01187 9739 ft 298 kts 86°
2026-05-04 07:38 60.44818 24.05231 9742 ft 281 kts 87°
2026-05-04 07:39 60.45053 24.09087 9609 ft 272 kts 88°
2026-05-04 07:39 60.45272 24.12887 9222 ft 272 kts 88°
2026-05-04 07:39 60.45487 24.16701 8795 ft 272 kts 88°
2026-05-04 07:39 60.45700 24.20506 8455 ft 271 kts 87°
2026-05-04 07:40 60.45806 24.24309 7967 ft 274 kts 93°
2026-05-04 07:40 60.45830 24.28130 7532 ft 276 kts 93°
2026-05-04 07:40 60.45841 24.32011 7122 ft 275 kts 93°
2026-05-04 07:40 60.45842 24.35885 6773 ft 274 kts 93°
2026-05-04 07:41 60.45838 24.39729 6436 ft 273 kts 93°
2026-05-04 07:41 60.45830 24.43560 6140 ft 271 kts 93°
2026-05-04 07:41 60.45819 24.47360 5781 ft 269 kts 93°
2026-05-04 07:41 60.45807 24.51128 5358 ft 265 kts 93°
2026-05-04 07:42 60.45793 24.54849 4799 ft 263 kts 93°
2026-05-04 07:42 60.45778 24.58491 4279 ft 261 kts 92°
2026-05-04 07:42 60.45761 24.62136 3765 ft 257 kts 92°
2026-05-04 07:42 60.45743 24.65719 3230 ft 253 kts 92°
2026-05-04 07:43 60.45725 24.69263 2698 ft 249 kts 92°
2026-05-04 07:43 60.45708 24.72687 2402 ft 235 kts 92°
2026-05-04 07:43 60.45693 24.75884 2207 ft 219 kts 92°
2026-05-04 07:43 60.45677 24.78852 2096 ft 206 kts 92°
2026-05-04 07:44 60.45552 24.81662 1971 ft 192 kts 110°
2026-05-04 07:44 60.44815 24.83808 1930 ft 188 kts 138°
2026-05-04 07:44 60.43818 24.85446 1720 ft 183 kts 155°
2026-05-04 07:44 60.42644 24.86471 1624 ft 184 kts 160°
2026-05-04 07:45 60.41510 24.87681 1627 ft 180 kts 151°
2026-05-04 07:45 60.40479 24.88802 1646 ft 157 kts 156°
2026-05-04 07:45 60.39567 24.89721 1629 ft 140 kts 157°
2026-05-04 07:45 60.38700 24.90610 1466 ft 140 kts 156°
2026-05-04 07:46 60.37835 24.91509 1282 ft 140 kts 156°
2026-05-04 07:46 60.36976 24.92383 1054 ft 140 kts 156°
2026-05-04 07:46 60.36103 24.93267 806 ft 140 kts 155°
2026-05-04 07:46 60.35243 24.94183 650 ft 139 kts 153°
2026-05-04 07:47 60.34371 24.95069 496 ft 141 kts 154°
2026-05-04 07:47 60.33492 24.95982 311 ft 142 kts 154°
2026-05-04 07:47 60.32615 24.96879 179 ft 138 kts 153°
2026-05-04 07:49 60.31497 24.97684 193 ft 12 kts 332°
2026-05-04 07:49 60.31575 24.97602 201 ft 13 kts 333°
2026-05-04 07:49 60.31666 24.97507 189 ft 16 kts 332°
2026-05-04 07:50 60.31773 24.97397 183 ft 19 kts 333°
2026-05-04 07:50 60.31898 24.97267 181 ft 22 kts 332°
2026-05-04 07:50 60.32017 24.97146 179 ft 24 kts 333°
2026-05-04 07:50 60.32043 24.97120 179 ft 0 kts 333°
2026-05-04 07:51 60.32043 24.97119 179 ft 0 kts 333°
2026-05-04 07:52 60.32076 24.97085 178 ft 14 kts 333°
2026-05-04 07:52 60.32176 24.96979 177 ft 18 kts 330°
2026-05-04 07:53 60.32218 24.96814 175 ft 14 kts 248°
2026-05-04 07:54 60.31558 24.95587 166 ft 22 kts 225°
2026-05-04 07:55 60.31477 24.95442 165 ft 6 kts 188°
2026-05-04 07:55 60.31438 24.95476 166 ft 7 kts 146°
2026-05-04 07:55 60.31423 24.95500 166 ft 2 kts 141°
2026-05-04 07:55 60.31417 24.95510 166 ft 0 kts 140°